Regional Weather Roundup
Issued by NWS Goodland, KS

Home | Current Version | Previous Version | Graphics & Text | Print | Product List | Glossary On
Versions: 1 2 3 4 5 6 7 8 9 10 11 12 13 14 15 16 17 18 19 20 21 22 23 24 25 26 27 28 29 30 31 32 33 34 35 36 37 38 39 40 41 42 43 44 45 46 47 48 49 50
000
ASUS43 KGLD 291408
RWRGLD

GOODLAND FORECAST AREA HOURLY WEATHER ROUNDUP
NATIONAL WEATHER SERVICE GOODLAND KS
800 AM MDT TUE JUL 29 2014

...OFFICIAL OBSERVATIONS...

CITY           SKY/WX    TMP DP  RH WIND       PRES   REMARKS
GOODLAND KS    SUNNY     68  62  81 S10       30.22S
HILL CITY KS   SUNNY     72  55  55 SE10      30.22S
IMPERIAL NEB   SUNNY     63  56  78 E15       30.23R
MCCOOK NEB     SUNNY     66  56  70 E13       30.23S
AKRON CO       SUNNY     71  57  61 VRB3      30.24R
BURLINGTON CO  MOSUNNY   66  60  81 S13       30.23R
LIMON CO       FOG       59  59 100 CALM      30.28S VSB 1
$$

...UNOFFICIAL OBSERVATIONS...

CITY           SKY/WX    TMP DP  RH WIND       PRES   REMARKS
COLBY KS       SUNNY     70  63  78 SE6       30.23S
LENORA KS        N/A     68  32  26 MISG        N/A
NORTON KS      MOSUNNY   70  52  52 E12       30.23R
OBERLIN KS     FAIR      68  55  64 SE10      30.22S
ST FRANCIS KS  CLOUDY    68  59  73 S7        30.22
TRIBUNE KS     MOSUNNY   64 N/A N/A S9        30.24R
WAKEENEY KS      N/A     68  53  58 MISG        N/A
TRENTON NEB      N/A     65  32  29 SE12        N/A
KIT CARSON CO    N/A     64  60  87 N5G12       N/A
WRAY CO          N/A     68  59  73 E7        30.23
YUMA CO          N/A     66  60  82 CALM        N/A
$$



USA.gov is the U.S. government's official web portal to all federal, state and local government web resources and services.